Regional Weather Roundup
Issued by NWS

Home | Current Version | Previous Version | Text Only | Print | Product List | Glossary Off
Versions: 1 2 3 4 5 6 7 8 9 10 11 12 13 14 15 16 17 18 19 20 21 22 23 24 25 26 27 28 29 30 31 32 33 34 35 36 37 38 39 40 41 42 43 44 45 46 47 48 49 50

000
ASUS43 KFSD 210810
RWRSD

WEATHER ROUNDUP FOR SOUTH DAKOTA
NATIONAL WEATHER SERVICE SIOUX FALLS SD
300 AM CDT THU AUG 21 2014

NOTE: "FAIR" INDICATES FEW OR NO CLOUDS BELOW 12,000 FEET WITH NO
SIGNIFICANT WEATHER AND/OR OBSTRUCTIONS TO VISIBILITY.


SDZ001>005-009-010-012>017-210900-
NORTHWEST AND NORTH CENTRAL SOUTH DAKOTA

CITY           SKY/WX    TMP DP  RH WIND       PRES   REMARKS
BUFFALO          N/A     60  55  83 NW5       29.79S
FAITH            N/A     61  60  97 NW9       29.79F
MOBRIDGE       PTCLDY    65  64  97 N6        29.68S
$$

SDZ012>016-024>037-041>051-057-063-072>074-210900-
SOUTHWEST AND SOUTH CENTRAL SOUTH DAKOTA

CITY           SKY/WX    TMP DP  RH WIND       PRES   REMARKS
RAPID CTY ARPT MOCLDY    66  59  78 N8        29.86R
PIERRE         CLEAR     65  63  93 NW13      29.70R
CUSTER         MOCLDY    61  48  62 W5        29.99R
ELLSWORTH AFB  CLOUDY    66  59  78 N8        29.86R
PHILIP         CLEAR     63  60  90 NW8       29.79S
PINE RIDGE     PTCLDY    59  56  89 N5        29.87R
WINNER         FAIR      72  64  76 W10       29.73R
$$

SDZ004>011-016>023-039-040-210900-
NORTHEAST SOUTH DAKOTA

CITY           SKY/WX    TMP DP  RH WIND       PRES   REMARKS
ABERDEEN       MOCLDY    65  65 100 E5        29.65F
WATERTOWN      RAIN      66  65  96 N16       29.74R FOG
SISSETON         N/A     69  69 100 MISG      29.74R
$$

SDZ017-020-022-023-036>040-048>070-210900-
SOUTHEAST SOUTH DAKOTA

CITY           SKY/WX    TMP DP  RH WIND       PRES   REMARKS
SIOUX FALLS    PTCLDY    77  72  84 S13       29.68F
HURON          CLOUDY    71  65  81 NE16G28   29.70R
CHAMBERLAIN    CLEAR     72  71  98 W6        29.67R
MITCHELL       CLEAR     76  73  91 S8        29.65S
YANKTON        PTCLDY    75  72  88 S8        29.67S
$$

ABBREVIATIONS USED IN REMARKS
   TC - TEMPERATURE IN CELSIUS
  WCI - WIND CHILL INDEX
   HX - HEAT INDEX
  VSB - VISIBILITY



USA.gov is the U.S. government's official web portal to all federal, state and local government web resources and services.